Flag for U.S.A. Weather past 2 weeks in Tucson, Arizona, U.S.A.

Now
79 °F

Scattered clouds.


Feels Like: 81 °F
Forecast: 74 / 93 °F
Wind: 3 mph from South

Location: Davis-Monthan Air Force Base

Current Time: Jul 6, 2015 at 8:50:10 AM

Latest Report: Jul 6, 2015 at 7:59 AM


Visibility: 4 mi

Pressure: 30.09 "Hg (27.59 "Hg at 758m altitude)

Humidity: 65%

Dew point: 66 °F

Location of TucsonLocation

Historic Weather in Tucson — Graph

°F

Tucson temperature yesterday

Maximum temperature yesterday: 88 °F (at 1:58 PM)
Minimum temperature yesterday: 73 °F (at 2:58 PM)
Average temperature yesterday: 80 °F

Past Weeks' High & Low Weather Summary

 TemperatureHumidityPressure
High104 °F (Jun 27, 2:58 PM)82% (Jul 6, 5:58 AM)30.03 "Hg (Jul 6, 5:58 AM)
Low71 °F (Jul 1, 5:58 AM)9% (Jun 22, 6:58 PM)29.66 "Hg (Jul 3, 5:58 PM)
Average87 °F40%29.83 "Hg
* Reported Jun 21 6:58 AM — Jul 6 6:58 AM, Tucson, Weather by CustomWeather, © 2015

Note: Actual official high and low records may vary slightly from our data, if they occured in-between our weather recording intervals... More about our weather records

Advertising

Tucson weather history for previous 24 hours

 ConditionsComfort  
Time TempWeatherWind HumidityBarometerVisibility
6:58 AM
Mon, Jul 6
76 °FScattered clouds.No wind73%29.96 "Hg10 mi
5:58 AM74 °FPartly sunny.No wind82%29.96 "Hg10 mi
4:58 AM74 °FPassing clouds.2 mph76%29.95 "Hg10 mi
3:58 AM74 °FPassing clouds.2 mph80%29.94 "Hg10 mi
2:58 AM74 °FPassing clouds.No wind78%29.93 "Hg10 mi
1:58 AM75 °FClear.5 mph75%29.90 "Hg10 mi
12:58 AM74 °FClear.5 mph80%29.90 "Hg10 mi
11:58 PM
Sun, Jul 5
75 °FPassing clouds.5 mph80%29.90 "Hg10 mi
10:58 PM76 °FPassing clouds.2 mph77%29.92 "Hg10 mi
9:58 PM77 °FClear.3 mph71%29.92 "Hg10 mi
8:58 PM77 °FPassing clouds.2 mph70%29.89 "Hg10 mi
7:58 PM77 °FPassing clouds.3 mph71%29.88 "Hg10 mi
6:58 PM77 °FScattered clouds.5 mph68%29.88 "Hg10 mi
5:58 PM75 °FSunny.No wind75%29.89 "Hg10 mi
4:58 PM75 °FPassing clouds.8 mph77%29.91 "Hg10 mi
3:58 PM76 °FSunny.17 mph75%29.92 "Hg10 mi
3:03 PM73 °FStrong thunderstorms. Scattered clouds.6 mph78%30.03 "Hg10 mi
2:58 PM73 °FStrong thunderstorms. Partly sunny.7 mph79%29.91 "Hg9 mi
1:58 PM88 °FThunderstorms. Overcast.20 mph43%29.86 "Hg10 mi
12:58 PM87 °FScattered clouds.6 mph45%29.88 "Hg10 mi
11:58 AM85 °FSunny.3 mph49%29.91 "Hg10 mi
10:58 AM82 °FSunny.8 mph57%29.93 "Hg10 mi
9:58 AM82 °FSunny.10 mph56%29.91 "Hg10 mi
8:58 AM82 °FPassing clouds.9 mph56%29.91 "Hg10 mi
Weather by CustomWeather, © 2015

See weather overviewHow to use our weather pages